Location: Nairn
(57.5833°N, 3.8667°W)
Time: 12:55:34
(UTC+00:00)

Altair - Pass Details

Date: 12 December 2023
Orbit: 1501 x 1682 km, 47.2° (Epoch: 02 March)

Event Time Altitude Azimuth Distance (km) Brightness Sun altitude
Rises 06:12:43 0° 206° (SSW) 4,869 10.0 -18.8°
Reaches altitude 10° 06:16:32 10° 195° (SSW) 3,859 9.6 -18.3°
Maximum altitude 06:24:06 26° 144° (SE) 2,741 9.4 -17.3°
Drops below altitude 10° 06:31:28 10° 93° (E) 3,755 10.8 -16.4°
Sets 06:35:06 0° 81° (E) 4,715 11.2 -15.9°
